Flood From: 21-02-2018 18:00 Until: 22-02-2018 16:00 warning for: Flood Level: Yellow info button

Although rather usual in this region, locally or potentially dangerous phenomena are expected. (such as local winds, summer thunderstorms, rising streams or high waves) Be aware and pay attention to the latest weather updates, especially if you carry out activities exposed to weather or close to a stream or shoreline. 


Meteo18 Weather Cam more information Meteo18 Weather Cam


Thunder radar more information blitzortung!


Rain radar more information rain snow radar


Visit our other weather sites:

Template documentation
and downloads

And another site



Weather Underground History page Text

Daily Summary for February 16, 2016 Units:  Metric    English   Both
« Previous Day
Next Day »
Daily Weekly Monthly Yearly Custom
  High: Low: Average:
Temperature: -17.8 °C -18.6 °C -17.2 °C
Dew Point: -17.8 °C -19.1 °C -18.4 °C
Humidity: Humidity % 74 % 85 %
Wind Speed: 0 km/h 0 km/h 9.7 km/h
Wind Gust: 0 km/h - -
Wind:- - ENE
Pressure: 0 hPa 34797.9 hPa -
Precipitation: 0 mm    
Historical Graphs
 
 
Tabular Data for February 16, 2016
Time Temperature Dew Point Pressure Wind Wind Speed Wind Gust Humidity Rainfall Rate (Hourly)
-17.8 °C -17.8 °C 0 hPa Calm     Humidity % 0 mm
00:02 -17 °C -18.3 °C 34797.9 hPa East 12.9 km/h 28.5 km/h 84 % 0 mm
00:12 -17 °C -18.3 °C 34808.1 hPa NNE 12.9 km/h 31.1 km/h 84 % 0 mm
00:17 -17.1 °C -18.4 °C 34808.1 hPa ESE 10.3 km/h 31.1 km/h 84 % 0 mm
00:22 -17.1 °C -18.4 °C 34818.2 hPa ENE 7.7 km/h 31.1 km/h 84 % 0 mm
00:27 -17.1 °C -18.3 °C 34818.2 hPa NE 18.2 km/h 31.1 km/h 85 % 0 mm
00:32 -17.2 °C -18.4 °C 34818.2 hPa ENE 12.9 km/h 31.1 km/h 85 % 0 mm
00:37 -17.2 °C -18.4 °C 34818.2 hPa ENE 23.3 km/h 28.5 km/h 85 % 0 mm
00:42 -17.2 °C -18.3 °C 34818.2 hPa ENE 10.3 km/h 28.5 km/h 86 % 0 mm
00:47 -17.2 °C -18.3 °C 34818.2 hPa ENE 18.2 km/h 33.6 km/h 86 % 0 mm
00:52 -17.2 °C -18.4 °C 34818.2 hPa NE 18.2 km/h 33.6 km/h 86 % 0 mm
00:57 -17.3 °C -18.4 °C 34831.8 hPa ENE 10.3 km/h 33.6 km/h 86 % 0 mm
01:02 -17.3 °C -18.4 °C 34831.8 hPa East 10.3 km/h 31.1 km/h 87 % 0 mm
01:07 -17.4 °C -18.4 °C 34831.8 hPa ESE 12.9 km/h 28.5 km/h 87 % 0 mm
01:12 -17.4 °C -18.4 °C 34831.8 hPa NE 25.9 km/h 28.5 km/h 87 % 0 mm
01:17 -17.4 °C -18.4 °C 34831.8 hPa NE 18.2 km/h 28.5 km/h 87 % 0 mm
01:27 -17.4 °C -18.4 °C 34841.9 hPa ENE 5.1 km/h 28.5 km/h 88 % 0 mm
01:32 -17.4 °C -18.4 °C 34841.9 hPa ENE 12.9 km/h 28.5 km/h 88 % 0 mm
01:37 -17.4 °C -18.4 °C 34841.9 hPa SE 7.7 km/h 28.5 km/h 88 % 0 mm
01:42 -17.4 °C -18.4 °C 34841.9 hPa SE 12.9 km/h 33.6 km/h 88 % 0 mm
01:52 -17.4 °C -18.4 °C 34841.9 hPa NE 28.5 km/h 33.6 km/h 88 % 0 mm
01:57 -17.5 °C -18.4 °C 34841.9 hPa NE 25.9 km/h 28.5 km/h 89 % 0 mm
02:02 -17.6 °C -18.4 °C 34852.1 hPa East 10.3 km/h 28.5 km/h 89 % 0 mm
02:07 -17.6 °C -18.4 °C 34852.1 hPa ENE 15.6 km/h 28.5 km/h 89 % 0 mm
02:12 -17.6 °C -18.4 °C 34841.9 hPa NE 7.7 km/h 31.1 km/h 89 % 0 mm
02:17 -17.6 °C -18.4 °C 34852.1 hPa SE 5.1 km/h 31.1 km/h 89 % 0 mm
02:27 -17.7 °C -18.4 °C 34852.1 hPa NE 20.8 km/h 28.5 km/h 90 % 0 mm
02:32 -17.7 °C -18.4 °C 34852.1 hPa East 18.2 km/h 31.1 km/h 90 % 0 mm
02:37 -17.7 °C -18.5 °C 34852.1 hPa NE 7.7 km/h 31.1 km/h 90 % 0 mm
02:42 -17.7 °C -18.5 °C 34852.1 hPa ESE 5.1 km/h 31.1 km/h 90 % 0 mm
02:47 -17.7 °C -18.5 °C 34852.1 hPa ENE 5.1 km/h 25.9 km/h 90 % 0 mm
02:57 -17.7 °C -18.5 °C 34852.1 hPa NE 20.8 km/h 28.5 km/h 90 % 0 mm
03:02 -17.7 °C -18.5 °C 34852.1 hPa ENE 15.6 km/h 28.5 km/h 90 % 0 mm
03:07 -17.8 °C -18.6 °C 34852.1 hPa NE 7.7 km/h 28.5 km/h 90 % 0 mm
03:12 -17.8 °C -18.6 °C 34852.1 hPa East 10.3 km/h 25.9 km/h 90 % 0 mm
03:17 -17.8 °C -18.6 °C 34852.1 hPa NE 23.3 km/h 25.9 km/h 90 % 0 mm
03:22 -17.8 °C -18.6 °C 34865.6 hPa East 7.7 km/h 23.3 km/h 90 % 0 mm
03:27 -17.8 °C -18.6 °C 34865.6 hPa ENE 10.3 km/h 28.5 km/h 90 % 0 mm
03:32 -17.8 °C -18.6 °C 34852.1 hPa ENE 2.6 km/h 28.5 km/h 90 % 0 mm
03:42 -17.9 °C -18.7 °C 34852.1 hPa ESE 7.7 km/h 28.5 km/h 90 % 0 mm
03:47 -17.9 °C -18.6 °C 34852.1 hPa NE 15.6 km/h 25.9 km/h 91 % 0 mm
03:52 -17.9 °C -18.7 °C 34852.1 hPa East 2.6 km/h 31.1 km/h 90 % 0 mm
03:57 -17.9 °C -18.6 °C 34852.1 hPa NE 12.9 km/h 31.1 km/h 91 % 0 mm
04:02 -17.9 °C -18.7 °C 34852.1 hPa East 2.6 km/h 25.9 km/h 91 % 0 mm
04:07 -18 °C -18.6 °C 34852.1 hPa ENE 12.9 km/h 23.3 km/h 92 % 0 mm
04:12 -18 °C -18.6 °C 34865.6 hPa NE 18.2 km/h 23.3 km/h 92 % 0 mm
04:17 -18 °C -18.6 °C 34865.6 hPa NE 15.6 km/h 25.9 km/h 92 % 0 mm
04:22 -18 °C -18.6 °C 34865.6 hPa East 7.7 km/h 25.9 km/h 92 % 0 mm
04:27 -18 °C -18.6 °C 34865.6 hPa NNE 20.8 km/h 28.5 km/h 92 % 0 mm
04:32 -18 °C -18.6 °C 34865.6 hPa ENE 5.1 km/h 31.1 km/h 92 % 0 mm
04:37 -18.1 °C -18.7 °C 34865.6 hPa NNE 15.6 km/h 31.1 km/h 92 % 0 mm
04:47 -18 °C -18.6 °C 34865.6 hPa NE 10.3 km/h 28.5 km/h 92 % 0 mm
04:52 -18.1 °C -18.7 °C 34865.6 hPa ESE 15.6 km/h 28.5 km/h 92 % 0 mm
04:57 -18.1 °C -18.7 °C 34865.6 hPa East 12.9 km/h 28.5 km/h 92 % 0 mm
05:02 -18.1 °C -18.7 °C 34865.6 hPa East 5.1 km/h 31.1 km/h 92 % 0 mm
05:07 -18.1 °C -18.7 °C 34865.6 hPa East 10.3 km/h 31.1 km/h 92 % 0 mm
05:12 -18.2 °C -18.8 °C 34865.6 hPa ENE 10.3 km/h 31.1 km/h 92 % 0 mm
05:17 -18.2 °C -18.8 °C 34865.6 hPa NE 12.9 km/h 23.3 km/h 92 % 0 mm
05:22 -18.2 °C -18.8 °C 34865.6 hPa ENE 12.9 km/h 23.3 km/h 92 % 0 mm
05:27 -18.2 °C -18.8 °C 34865.6 hPa ENE 5.1 km/h 33.6 km/h 92 % 0 mm
05:32 -18.2 °C -18.8 °C 34865.6 hPa ENE 5.1 km/h 33.6 km/h 92 % 0 mm
05:37 -18.2 °C -18.8 °C 34865.6 hPa ENE 18.2 km/h 23.3 km/h 92 % 0 mm
05:42 -18.2 °C -18.8 °C 34865.6 hPa NE 7.7 km/h 23.3 km/h 92 % 0 mm
05:47 -18.3 °C -18.8 °C 34875.8 hPa NE 15.6 km/h 25.9 km/h 93 % 0 mm
05:52 -18.3 °C -18.9 °C 34875.8 hPa NNE 7.7 km/h 25.9 km/h 93 % 0 mm
05:57 -18.3 °C -18.9 °C 34875.8 hPa SE 7.7 km/h 25.9 km/h 93 % 0 mm
06:02 -18.4 °C -18.9 °C 34875.8 hPa NE 12.9 km/h 25.9 km/h 93 % 0 mm
06:07 -18.4 °C -18.9 °C 34889.3 hPa SSE 7.7 km/h 25.9 km/h 93 % 0 mm
06:12 -18.4 °C -19 °C 34889.3 hPa NNE 5.1 km/h 25.9 km/h 93 % 0 mm
06:17 -18.4 °C -19 °C 34875.8 hPa ENE 5.1 km/h 25.9 km/h 93 % 0 mm
06:22 -18.4 °C -19 °C 34875.8 hPa NNE 15.6 km/h 25.9 km/h 93 % 0 mm
06:27 -18.4 °C -19 °C 34875.8 hPa NE 10.3 km/h 23.3 km/h 93 % 0 mm
06:32 -18.4 °C -19 °C 34889.3 hPa ENE 12.9 km/h 23.3 km/h 93 % 0 mm
06:42 -18.5 °C -19.1 °C 34889.3 hPa NE 10.3 km/h 25.9 km/h 93 % 0 mm
06:52 -18.5 °C -19.1 °C 34889.3 hPa ENE 18.2 km/h 28.5 km/h 93 % 0 mm
06:57 -18.5 °C -19.1 °C 34889.3 hPa ENE 12.9 km/h 23.3 km/h 93 % 0 mm
07:02 -18.5 °C -19.1 °C 34889.3 hPa ENE 15.6 km/h 23.3 km/h 93 % 0 mm
07:07 -18.5 °C -19.1 °C 34889.3 hPa East 7.7 km/h 20.8 km/h 93 % 0 mm
07:12 -18.6 °C -19.1 °C 34889.3 hPa East 5.1 km/h 20.8 km/h 93 % 0 mm
07:17 -18.6 °C -19.1 °C 34889.3 hPa NE 18.2 km/h 20.8 km/h 93 % 0 mm
07:22 -18.6 °C -19.1 °C 34889.3 hPa East 12.9 km/h 25.9 km/h 93 % 0 mm
07:27 -18.6 °C -19.1 °C 34899.5 hPa ENE 18.2 km/h 25.9 km/h 93 % 0 mm
07:32 -18.6 °C -19.1 °C 34899.5 hPa ENE 10.3 km/h 25.9 km/h 93 % 0 mm
07:37 -18.6 °C -19.1 °C 34899.5 hPa East 7.7 km/h 25.9 km/h 93 % 0 mm
07:42 -18.6 °C -19.1 °C 34899.5 hPa East 12.9 km/h 25.9 km/h 93 % 0 mm
07:47 -18.6 °C -19.1 °C 34899.5 hPa NE 18.2 km/h 28.5 km/h 93 % 0 mm
07:52 -18.5 °C -19.1 °C 34909.7 hPa ENE 7.7 km/h 28.5 km/h 93 % 0 mm
07:57 -18.5 °C -19.1 °C 34899.5 hPa NE 15.6 km/h 25.9 km/h 92 % 0 mm
08:02 -18.5 °C -19.1 °C 34909.7 hPa NE 12.9 km/h 28.5 km/h 92 % 0 mm
08:12 -18.5 °C -19.1 °C 34909.7 hPa ENE 15.6 km/h 28.5 km/h 92 % 0 mm
08:17 -18.5 °C -19.1 °C 34909.7 hPa East 12.9 km/h 31.1 km/h 92 % 0 mm
08:22 -18.4 °C -19.1 °C 34909.7 hPa NE 18.2 km/h 31.1 km/h 92 % 0 mm
08:27 -18.4 °C -19.1 °C 34909.7 hPa ENE 12.9 km/h 31.1 km/h 92 % 0 mm
08:32 -18.4 °C -19.1 °C 34909.7 hPa ENE 15.6 km/h 31.1 km/h 92 % 0 mm
08:37 -18.4 °C -19.1 °C 34923.2 hPa NE 12.9 km/h 25.9 km/h 92 % 0 mm
08:42 -18.4 °C -19.1 °C 34923.2 hPa ENE 7.7 km/h 25.9 km/h 92 % 0 mm
08:52 -18.4 °C -19.1 °C 34923.2 hPa East 12.9 km/h 31.1 km/h 91 % 0 mm
08:57 -18.3 °C -19.1 °C 34923.2 hPa ESE 15.6 km/h 31.1 km/h 91 % 0 mm
09:02 -18.4 °C -19 °C 34933.4 hPa SE 5.1 km/h 31.1 km/h 92 % 0 mm
09:12 -18.3 °C -18.9 °C 34933.4 hPa ENE 12.9 km/h 23.3 km/h 92 % 0 mm
09:17 -18.3 °C -18.9 °C 34933.4 hPa ENE 12.9 km/h 23.3 km/h 92 % 0 mm
09:22 -18.2 °C -18.8 °C 34933.4 hPa NNE 18.2 km/h 31.1 km/h 92 % 0 mm
09:27 -18.2 °C -18.8 °C 34933.4 hPa ESE 10.3 km/h 31.1 km/h 92 % 0 mm
09:37 -18.2 °C -18.9 °C 34946.9 hPa NNW 10.3 km/h 28.5 km/h 91 % 0 mm
09:42 -18.2 °C -18.9 °C 34946.9 hPa ENE 12.9 km/h 33.6 km/h 91 % 0 mm
09:47 -18.2 °C -18.9 °C 34946.9 hPa ESE 5.1 km/h 36.2 km/h 91 % 0 mm
09:52 -18.2 °C -18.9 °C 34946.9 hPa East 15.6 km/h 36.2 km/h 91 % 0 mm
09:57 -18.1 °C -18.7 °C 34946.9 hPa NE 25.9 km/h 36.2 km/h 92 % 0 mm
10:02 -18.1 °C -18.8 °C 34946.9 hPa ESE 10.3 km/h 31.1 km/h 91 % 0 mm
10:07 -18.1 °C -18.8 °C 34946.9 hPa NE 20.8 km/h 28.5 km/h 91 % 0 mm
10:12 -18.1 °C -18.8 °C 34946.9 hPa SSE 15.6 km/h 31.1 km/h 91 % 0 mm
10:17 -18 °C -18.7 °C 34946.9 hPa ENE 12.9 km/h 36.2 km/h 91 % 0 mm
10:22 -18 °C -18.7 °C 34946.9 hPa NE 10.3 km/h 36.2 km/h 91 % 0 mm
10:32 -17.9 °C -18.7 °C 34946.9 hPa ESE 12.9 km/h 28.5 km/h 90 % 0 mm
10:37 -17.7 °C -18.5 °C 34946.9 hPa SE 7.7 km/h 28.5 km/h 90 % 0 mm
10:42 -17.4 °C -18.3 °C 34933.4 hPa ENE 10.3 km/h 25.9 km/h 89 % 0 mm
10:47 -17.4 °C -18.4 °C 34933.4 hPa ENE 5.1 km/h 33.6 km/h 87 % 0 mm
10:52 -17.4 °C -18.4 °C 34933.4 hPa NE 7.7 km/h 33.6 km/h 87 % 0 mm
10:57 -17.4 °C -18.6 °C 34933.4 hPa ENE 7.7 km/h 33.6 km/h 86 % 0 mm
11:02 -17.3 °C -18.4 °C 34933.4 hPa South 7.7 km/h 31.1 km/h 86 % 0 mm
11:12 -17.2 °C -18.4 °C 34933.4 hPa North 7.7 km/h 25.9 km/h 86 % 0 mm
11:17 -17.1 °C -18.3 °C 34933.4 hPa NE 7.7 km/h 25.9 km/h 86 % 0 mm
11:22 -17.2 °C -18.4 °C 34933.4 hPa East 12.9 km/h 28.5 km/h 85 % 0 mm
11:27 -17.2 °C -18.4 °C 34933.4 hPa SE 7.7 km/h 31.1 km/h 86 % 0 mm
11:32 -17.1 °C -18.3 °C 34933.4 hPa SE 2.6 km/h 31.1 km/h 85 % 0 mm
11:37 -17 °C -18.2 °C 34933.4 hPa ENE 7.7 km/h 31.1 km/h 85 % 0 mm
11:42 -16.9 °C -18.1 °C 34933.4 hPa East 18.2 km/h 31.1 km/h 85 % 0 mm
11:52 -16.6 °C -17.9 °C 34933.4 hPa ESE 2.6 km/h 36.2 km/h 85 % 0 mm
11:57 -16.4 °C -17.9 °C 34933.4 hPa NNE 23.3 km/h 31.1 km/h 83 % 0 mm
12:02 -16.4 °C -17.9 °C 34933.4 hPa NNE 10.3 km/h 31.1 km/h 82 % 0 mm
12:07 -16.4 °C -18 °C 34933.4 hPa NE 36.2 km/h 36.2 km/h 82 % 0 mm
12:12 -16.4 °C -17.9 °C 34933.4 hPa NE 7.7 km/h 38.8 km/h 82 % 0 mm
12:17 -16.4 °C -18 °C 34933.4 hPa ENE 7.7 km/h 38.8 km/h 82 % 0 mm
12:27 -16.1 °C -17.6 °C 34933.4 hPa ESE 5.1 km/h 33.6 km/h 83 % 0 mm
12:32 -16.1 °C -17.9 °C 34923.2 hPa NNE 12.9 km/h 33.6 km/h 79 % 0 mm
12:42 -16 °C -17.6 °C 34923.2 hPa NNE 18.2 km/h 31.1 km/h 81 % 0 mm
12:47 -16.1 °C -17.9 °C 34923.2 hPa NNE 15.6 km/h 31.1 km/h 79 % 0 mm
12:52 -16.1 °C -17.8 °C 34923.2 hPa NE 2.6 km/h 28.5 km/h 80 % 0 mm
12:57 -15.9 °C -17.6 °C 34909.7 hPa SE 7.7 km/h 28.5 km/h 80 % 0 mm
13:02 -15.8 °C -17.7 °C 34909.7 hPa SSE 10.3 km/h 31.1 km/h 79 % 0 mm
13:12 -15.9 °C -17.7 °C 34909.7 hPa NNE 15.6 km/h 31.1 km/h 79 % 0 mm
13:17 -15.8 °C -17.5 °C 34909.7 hPa ENE 20.8 km/h 31.1 km/h 81 % 0 mm
13:22 -15.9 °C -17.6 °C 34909.7 hPa NE 10.3 km/h 31.1 km/h 81 % 0 mm
13:27 -15.9 °C -17.6 °C 34909.7 hPa ENE 12.9 km/h 28.5 km/h 80 % 0 mm
13:32 -15.9 °C -17.6 °C 34909.7 hPa ENE 10.3 km/h 28.5 km/h 80 % 0 mm
13:37 -15.8 °C -17.6 °C 34899.5 hPa NE 18.2 km/h 25.9 km/h 79 % 0 mm
13:42 -15.8 °C -17.5 °C 34899.5 hPa East 10.3 km/h 25.9 km/h 80 % 0 mm
13:52 -15.7 °C -17.4 °C 34899.5 hPa NE 12.9 km/h 31.1 km/h 80 % 0 mm
13:57 -15.7 °C -17.6 °C 34899.5 hPa NE 20.8 km/h 31.1 km/h 79 % 0 mm
14:02 -15.6 °C -17.6 °C 34899.5 hPa NNE 10.3 km/h 31.1 km/h 78 % 0 mm
14:07 -15.6 °C -17.6 °C 34899.5 hPa NNE 5.1 km/h 28.5 km/h 78 % 0 mm
14:12 -15.5 °C -17.4 °C 34899.5 hPa North 18.2 km/h 28.5 km/h 78 % 0 mm
14:17 -15.4 °C -17.6 °C 34899.5 hPa NNE 5.1 km/h 28.5 km/h 76 % 0 mm
14:22 -15.3 °C -17.2 °C 34899.5 hPa North 15.6 km/h 25.9 km/h 79 % 0 mm
14:32 -15.6 °C -17.3 °C 34899.5 hPa NE 12.9 km/h 31.1 km/h 80 % 0 mm
14:37 -15.6 °C -17.4 °C 34889.3 hPa NE 15.6 km/h 31.1 km/h 79 % 0 mm
14:42 -15.5 °C -17.4 °C 34889.3 hPa ENE 5.1 km/h 31.1 km/h 78 % 0 mm
14:52 -15.5 °C -17.6 °C 34889.3 hPa NE 18.2 km/h 33.6 km/h 77 % 0 mm
14:57 -15.6 °C -17.8 °C 34889.3 hPa NE 5.1 km/h 33.6 km/h 75 % 0 mm
15:02 -15.4 °C -17.3 °C 34889.3 hPa East 10.3 km/h 31.1 km/h 79 % 0 mm
15:12 -15.6 °C -17.7 °C 34889.3 hPa ENE 10.3 km/h 31.1 km/h 76 % 0 mm
15:17 -15.4 °C -17.4 °C 34889.3 hPa NE 10.3 km/h 31.1 km/h 77 % 0 mm
15:22 -15.5 °C -17.7 °C 34875.8 hPa ESE 15.6 km/h 31.1 km/h 75 % 0 mm
15:27 -15.6 °C -17.6 °C 34875.8 hPa ENE 5.1 km/h 28.5 km/h 78 % 0 mm
15:32 -15.6 °C -17.6 °C 34875.8 hPa South 10.3 km/h 28.5 km/h 77 % 0 mm
15:37 -15.5 °C -17.7 °C 34875.8 hPa NE 33.6 km/h 33.6 km/h 75 % 0 mm
15:42 -15.7 °C -17.8 °C 34875.8 hPa NE 10.3 km/h 38.8 km/h 77 % 0 mm
15:47 -15.6 °C -17.7 °C 34875.8 hPa SE 10.3 km/h 38.8 km/h 76 % 0 mm
15:52 -15.6 °C -17.7 °C 34875.8 hPa North 15.6 km/h 38.8 km/h 76 % 0 mm
15:57 -15.6 °C -17.9 °C 34875.8 hPa ENE 20.8 km/h 41.4 km/h 74 % 0 mm
16:02 -15.6 °C -17.7 °C 34889.3 hPa SE 5.1 km/h 41.4 km/h 76 % 0 mm
16:07 -15.5 °C -17.7 °C 34889.3 hPa NE 10.3 km/h 41.4 km/h 75 % 0 mm
16:12 -15.7 °C -17.8 °C 34889.3 hPa ESE 7.7 km/h 33.6 km/h 76 % 0 mm
16:17 -15.8 °C -17.9 °C 34889.3 hPa East 12.9 km/h 36.2 km/h 76 % 0 mm
16:22 -15.7 °C -17.8 °C 34889.3 hPa ENE 7.7 km/h 36.2 km/h 76 % 0 mm
16:27 -15.6 °C -17.7 °C 34889.3 hPa SE 23.3 km/h 36.2 km/h 76 % 0 mm
16:32 -15.7 °C -17.9 °C 34889.3 hPa SSE 10.3 km/h 33.6 km/h 75 % 0 mm
16:37 -15.7 °C -17.8 °C 34889.3 hPa NNE 10.3 km/h 33.6 km/h 76 % 0 mm
16:42 -15.7 °C -17.9 °C 34889.3 hPa ENE 12.9 km/h 33.6 km/h 75 % 0 mm
16:52 -15.8 °C -17.8 °C 34889.3 hPa NNE 20.8 km/h 31.1 km/h 77 % 0 mm
16:57 -15.9 °C -17.9 °C 34889.3 hPa NE 12.9 km/h 31.1 km/h 77 % 0 mm
17:02 -15.9 °C -17.9 °C 34889.3 hPa NE 12.9 km/h 25.9 km/h 77 % 0 mm
17:12 -15.9 °C -17.9 °C 34889.3 hPa East 2.6 km/h 25.9 km/h 78 % 0 mm
17:17 -15.9 °C -17.9 °C 34889.3 hPa ESE 10.3 km/h 25.9 km/h 78 % 0 mm
17:22 -15.9 °C -17.9 °C 34889.3 hPa NNE 12.9 km/h 25.9 km/h 78 % 0 mm
17:27 -15.9 °C -17.9 °C 34889.3 hPa East 2.6 km/h 20.8 km/h 77 % 0 mm
17:32 -15.9 °C -17.9 °C 34889.3 hPa ENE 2.6 km/h 20.8 km/h 77 % 0 mm
17:37 -16 °C -18.1 °C 34889.3 hPa NW 2.6 km/h 15.6 km/h 76 % 0 mm
17:42 -16.2 °C -18.3 °C 34889.3 hPa NE 7.7 km/h 15.6 km/h 76 % 0 mm
17:52 -16.3 °C -18.1 °C 34889.3 hPa Calm   20.8 km/h 79 % 0 mm
17:57 -16.4 °C -18.3 °C 34889.3 hPa Calm   20.8 km/h 78 % 0 mm
18:02 -16.5 °C -18.4 °C 34889.3 hPa NNE 5.1 km/h 18.2 km/h 78 % 0 mm
18:12 -16.6 °C -18.4 °C 34889.3 hPa NNE 7.7 km/h 10.3 km/h 79 % 0 mm
18:17 -16.7 °C -18.6 °C 34889.3 hPa Calm   10.3 km/h 78 % 0 mm
18:22 -16.8 °C -18.3 °C 34889.3 hPa Calm   15.6 km/h 82 % 0 mm
18:27 -16.9 °C -18.4 °C 34899.5 hPa Calm   15.6 km/h 83 % 0 mm
18:32 -17.1 °C -18.3 °C 34899.5 hPa ENE 2.6 km/h 15.6 km/h 85 % 0 mm
18:37 -17 °C -18.2 °C 34889.3 hPa Calm   7.7 km/h 85 % 0 mm
18:42 -17.1 °C -18.4 °C 34889.3 hPa Calm   7.7 km/h 84 % 0 mm
18:52 -17.1 °C -18.3 °C 34889.3 hPa Calm   5.1 km/h 85 % 0 mm
18:57 -17.1 °C -18.3 °C 34889.3 hPa Calm   5.1 km/h 85 % 0 mm
19:02 -17 °C -18.2 °C 34889.3 hPa North 5.1 km/h 12.9 km/h 85 % 0 mm
19:12 -16.9 °C -18.2 °C 34889.3 hPa Calm   12.9 km/h 84 % 0 mm
19:17 -16.9 °C -18.3 °C 34889.3 hPa Calm   15.6 km/h 83 % 0 mm
19:22 -16.9 °C -18.3 °C 34889.3 hPa NE 7.7 km/h 15.6 km/h 83 % 0 mm
19:27 -16.9 °C -18.5 °C 34889.3 hPa NE 15.6 km/h 18.2 km/h 81 % 0 mm
19:32 -16.9 °C -18.6 °C 34889.3 hPa NNE 18.2 km/h 18.2 km/h 80 % 0 mm
19:37 -16.9 °C -18.6 °C 34889.3 hPa NNE 5.1 km/h 20.8 km/h 80 % 0 mm
19:42 -16.9 °C -18.6 °C 34889.3 hPa Calm   23.3 km/h 81 % 0 mm
19:47 -17 °C -18.7 °C 34889.3 hPa ESE 2.6 km/h 23.3 km/h 80 % 0 mm
19:52 -16.9 °C -18.7 °C 34875.8 hPa NNE 2.6 km/h 23.3 km/h 80 % 0 mm
19:57 -16.9 °C -18.6 °C 34875.8 hPa Calm   20.8 km/h 80 % 0 mm
20:02 -16.9 °C -18.6 °C 34875.8 hPa ENE 7.7 km/h 20.8 km/h 80 % 0 mm
20:12 -16.9 °C -18.5 °C 34875.8 hPa Calm   15.6 km/h 81 % 0 mm
20:17 -16.9 °C -18.5 °C 34875.8 hPa NNW 2.6 km/h 15.6 km/h 81 % 0 mm
20:22 -16.9 °C -18.6 °C 34875.8 hPa Calm   12.9 km/h 80 % 0 mm
20:37 -16.8 °C -18.6 °C 34875.8 hPa ENE 2.6 km/h 25.9 km/h 80 % 0 mm
20:42 -16.8 °C -18.6 °C 34875.8 hPa Calm   25.9 km/h 80 % 0 mm
20:47 -16.8 °C -18.4 °C 34875.8 hPa Calm   15.6 km/h 81 % 0 mm
20:52 -16.8 °C -18.4 °C 34875.8 hPa NE 7.7 km/h 15.6 km/h 81 % 0 mm
20:57 -16.8 °C -18.4 °C 34875.8 hPa NNE 5.1 km/h 15.6 km/h 81 % 0 mm
21:02 -16.8 °C -18.4 °C 34875.8 hPa North 2.6 km/h 20.8 km/h 81 % 0 mm
21:17 -16.8 °C -18.4 °C 34865.6 hPa NNE 2.6 km/h 18.2 km/h 81 % 0 mm
21:22 -16.8 °C -18.3 °C 34865.6 hPa NE 2.6 km/h 18.2 km/h 82 % 0 mm
21:27 -16.8 °C -18.3 °C 34865.6 hPa Calm   10.3 km/h 82 % 0 mm
21:32 -16.8 °C -18.3 °C 34852.1 hPa NNE 2.6 km/h 10.3 km/h 82 % 0 mm
21:37 -16.8 °C -18.3 °C 34852.1 hPa Calm   10.3 km/h 82 % 0 mm
21:42 -16.8 °C -18.3 °C 34852.1 hPa Calm   10.3 km/h 82 % 0 mm
21:47 -16.8 °C -18.3 °C 34852.1 hPa NNE 2.6 km/h 10.3 km/h 83 % 0 mm
21:52 -16.8 °C -18.3 °C 34852.1 hPa Calm   10.3 km/h 82 % 0 mm
21:57 -16.8 °C -18.3 °C 34841.9 hPa NNE 2.6 km/h 10.3 km/h 82 % 0 mm
22:02 -16.8 °C -18.3 °C 34841.9 hPa NE 2.6 km/h 10.3 km/h 82 % 0 mm
22:07 -16.8 °C -18.3 °C 34841.9 hPa Calm   10.3 km/h 82 % 0 mm
22:12 -16.8 °C -18.4 °C 34841.9 hPa NE 5.1 km/h 12.9 km/h 81 % 0 mm
22:22 -16.8 °C -18.4 °C 34831.8 hPa NNE 10.3 km/h 12.9 km/h 81 % 0 mm
22:27 -17 °C -18.5 °C 34831.8 hPa NNE 2.6 km/h 12.9 km/h 82 % 0 mm
22:32 -17.1 °C -18.6 °C 34831.8 hPa NNE 2.6 km/h 12.9 km/h 82 % 0 mm
22:37 -17.1 °C -18.6 °C 34818.2 hPa Calm   18.2 km/h 82 % 0 mm
22:42 -17.2 °C -18.7 °C 34818.2 hPa Calm   18.2 km/h 83 % 0 mm
22:52 -17.4 °C -18.7 °C 34818.2 hPa NNE 5.1 km/h 10.3 km/h 84 % 0 mm
22:57 -17.6 °C -18.9 °C 34818.2 hPa Calm   7.7 km/h 84 % 0 mm
23:02 -17.7 °C -18.9 °C 34818.2 hPa NE 5.1 km/h 7.7 km/h 85 % 0 mm
23:07 -17.8 °C -19 °C 34818.2 hPa Calm   7.7 km/h 86 % 0 mm
23:12 -17.9 °C -18.9 °C 34808.1 hPa Calm   7.7 km/h 87 % 0 mm
23:17 -18 °C -19.1 °C 34808.1 hPa Calm   7.7 km/h 87 % 0 mm
23:27 -17.9 °C -18.9 °C 34808.1 hPa NE 2.6 km/h 10.3 km/h 88 % 0 mm
23:32 -17.9 °C -18.8 °C 34797.9 hPa Calm   10.3 km/h 88 % 0 mm
23:37 -18 °C -18.9 °C 34797.9 hPa Calm   10.3 km/h 88 % 0 mm
23:42 -18 °C -18.9 °C 34797.9 hPa Calm   5.1 km/h 89 % 0 mm
23:52 -18.1 °C -19.1 °C 34797.9 hPa Calm   5.1 km/h 88 % 0 mm
23:57 -18.2 °C -19.1 °C 34797.9 hPa Calm   2.6 km/h 89 % 0 mm
Meteo18
Compliments of Weather Underground - 4 mb

Script developed by  Jim McMurry - jmcmurry@mwt.net Adapted for the template by  Wim van der Kuil - Leuven-Template.eu

You find our weather info also at:

European Weather Network

Weather Underground

Equipment we use:

Weather-station
Davis Vue

Weather-program
Meteobridge

Weather-server
Raspberry PI 2 B+

Provider
1 and 1

Davis Vue

Meteobridge

Raspberry PI 2 B+

1 and 1